Retour au catalogue

CZ-6A DEB

ActifPO
NORAD 61161·DEBRIS·🇨🇳 China

Lancé Aug 6, 2024 depuis Taiyuan Satellite Launch Center

Loading…

Prochains Passages (prochaines 24 heures)

TLE

FraisSource: Space-Track

Époque: Sep 14, 2026, 08:57 UTC

1 61161U 24140RF  26257.37346802  .00003416  00000-0  61799-3 0  9990
2 61161  88.8243 242.4572 0125707 336.2068  23.3363 14.61114380109690

Suivez CZ-6A DEB en temps réel avec AllMySat

Download on the App Store